ANA1096 RJTT-ROAH

Flight info

Callsign ANA1096
Flight time 2h 21m
Altitude 36000
Route LAXAS Y56 TOHME Y54 KOHWA Y12 AYANO Y128 LAXEL Y52 TONAR Y525 IHEYA
Aircraft B789/H-SDE1E2E3FGHIJ2J3J4J5M1RWXY/LB1D1

Departure

Time 2026-04-26 15:06
Airport Tokyo Haneda International Airport (RJTT)

Arrival

Time 2026-04-26 17:28
Airport Naha International Airport (ROAH)
Time Latitude Longitude Altitude Speed Heading
2026-04-26 14:30 35.55165 139.78956 28 ft 0 kts 243°
2026-04-26 14:49 35.55172 139.78975 28 ft 4 kts 249°
2026-04-26 14:50 35.55181 139.79005 42 ft 4 kts 239°
2026-04-26 14:50 35.55194 139.79020 27 ft 4 kts 204°
2026-04-26 14:50 35.55215 139.79027 27 ft 4 kts 166°
2026-04-26 14:50 35.55235 139.79013 27 ft 4 kts 143°
2026-04-26 14:51 35.55245 139.79005 25 ft 1 kts 147°
2026-04-26 14:51 35.55247 139.79003 26 ft 0 kts 147°
2026-04-26 14:55 35.55245 139.79005 28 ft 1 kts 147°
2026-04-26 14:55 35.55235 139.79013 28 ft 3 kts 144°
2026-04-26 14:55 35.55219 139.79042 28 ft 5 kts 111°
2026-04-26 14:55 35.55224 139.79087 28 ft 6 kts 64°
2026-04-26 14:56 35.55252 139.79146 28 ft 9 kts 59°
2026-04-26 14:56 35.55273 139.79210 28 ft 2 kts 101°
2026-04-26 14:56 35.55267 139.79216 28 ft 1 kts 146°
2026-04-26 14:56 35.55248 139.79228 28 ft 6 kts 151°
2026-04-26 14:57 35.55198 139.79261 27 ft 11 kts 152°
2026-04-26 14:57 35.55118 139.79314 28 ft 15 kts 151°
2026-04-26 14:57 35.55012 139.79390 27 ft 20 kts 149°
2026-04-26 14:57 35.54881 139.79487 28 ft 24 kts 149°
2026-04-26 14:58 35.54726 139.79595 29 ft 27 kts 149°
2026-04-26 14:58 35.54552 139.79715 29 ft 31 kts 150°
2026-04-26 14:58 35.54460 139.79782 29 ft 0 kts 148°
2026-04-26 15:00 35.54439 139.79798 29 ft 9 kts 148°
2026-04-26 15:00 35.54352 139.79858 29 ft 19 kts 152°
2026-04-26 15:00 35.54216 139.79957 29 ft 24 kts 147°
2026-04-26 15:00 35.54064 139.80066 29 ft 27 kts 152°
2026-04-26 15:01 35.53904 139.80176 29 ft 18 kts 150°
2026-04-26 15:01 35.53794 139.80178 29 ft 16 kts 187°
2026-04-26 15:01 35.53675 139.80197 29 ft 19 kts 169°
2026-04-26 15:01 35.53548 139.80267 29 ft 21 kts 150°
2026-04-26 15:02 35.53413 139.80362 29 ft 24 kts 149°
2026-04-26 15:02 35.53265 139.80467 29 ft 26 kts 150°
2026-04-26 15:02 35.53100 139.80583 29 ft 27 kts 150°
2026-04-26 15:02 35.52942 139.80651 27 ft 19 kts 207°
2026-04-26 15:03 35.52848 139.80535 29 ft 20 kts 222°
2026-04-26 15:03 35.52732 139.80413 29 ft 23 kts 221°
2026-04-26 15:03 35.52607 139.80289 29 ft 19 kts 191°
2026-04-26 15:03 35.52523 139.80368 29 ft 16 kts 125°
2026-04-26 15:04 35.52531 139.80491 29 ft 15 kts 44°
2026-04-26 15:04 35.52646 139.80618 28 ft 39 kts 43°
2026-04-26 15:04 35.53056 139.81076 28 ft 121 kts 41°
2026-04-26 15:04 35.53780 139.81913 97 ft 180 kts 44°
2026-04-26 15:06 35.54071 139.82255 206 ft 188 kts 39°
2026-04-26 15:06 35.55079 139.83436 568 ft 226 kts 45°
2026-04-26 15:06 35.56255 139.84890 671 ft 241 kts 54°
2026-04-26 15:06 35.56845 139.86797 321 ft 252 kts 85°
2026-04-26 15:07 35.55859 139.90662 998 ft 245 kts 115°
2026-04-26 15:07 35.55153 139.92584 2180 ft 243 kts 117°
2026-04-26 15:07 35.54019 139.94120 3309 ft 253 kts 146°
2026-04-26 15:08 35.52393 139.94916 4569 ft 253 kts 173°
2026-04-26 15:08 35.50645 139.94791 5844 ft 255 kts 191°
2026-04-26 15:08 35.48885 139.94375 6976 ft 259 kts 191°
2026-04-26 15:08 35.47097 139.93943 8083 ft 263 kts 191°
2026-04-26 15:09 35.45382 139.93119 9140 ft 268 kts 214°
2026-04-26 15:09 35.43975 139.91574 9915 ft 283 kts 225°
2026-04-26 15:09 35.42611 139.89752 10020 ft 301 kts 226°
2026-04-26 15:09 35.41134 139.87723 10213 ft 330 kts 226°
2026-04-26 15:10 35.39621 139.85700 11626 ft 322 kts 225°
2026-04-26 15:10 35.38576 139.84322 12105 ft 334 kts 225°
2026-04-26 15:10 35.36366 139.81409 12510 ft 371 kts 225°
2026-04-26 15:10 35.34556 139.79002 12820 ft 393 kts 225°
2026-04-26 15:11 35.32701 139.76528 13880 ft 395 kts 225°
2026-04-26 15:11 35.30782 139.74099 14689 ft 398 kts 219°
2026-04-26 15:11 35.28623 139.71970 15526 ft 401 kts 219°
2026-04-26 15:11 35.26520 139.69705 16363 ft 405 kts 220°
2026-04-26 15:12 35.24402 139.67420 17163 ft 408 kts 219°
2026-04-26 15:12 35.22221 139.65164 17927 ft 413 kts 219°
2026-04-26 15:12 35.20007 139.62893 18610 ft 417 kts 219°
2026-04-26 15:12 35.17791 139.60580 19302 ft 420 kts 220°
2026-04-26 15:13 35.15569 139.58248 19982 ft 423 kts 220°
2026-04-26 15:13 35.13322 139.55908 20661 ft 425 kts 220°
2026-04-26 15:13 35.11078 139.53529 21268 ft 428 kts 224°
2026-04-26 15:13 35.09142 139.50753 21843 ft 432 kts 233°
2026-04-26 15:14 35.07615 139.47629 22426 ft 436 kts 242°
2026-04-26 15:14 35.06524 139.44162 22977 ft 442 kts 252°
2026-04-26 15:14 35.05858 139.40479 23492 ft 446 kts 256°
2026-04-26 15:14 35.05227 139.36760 23957 ft 448 kts 256°
2026-04-26 15:15 35.04606 139.33029 24469 ft 449 kts 256°
2026-04-26 15:15 35.03986 139.29283 24966 ft 450 kts 256°
2026-04-26 15:15 35.03360 139.25538 25442 ft 451 kts 255°
2026-04-26 15:15 35.02728 139.21787 25903 ft 452 kts 255°
2026-04-26 15:16 35.02095 139.18024 26340 ft 453 kts 255°
2026-04-26 15:16 35.01462 139.14252 26764 ft 455 kts 255°
2026-04-26 15:16 35.00823 139.10462 27112 ft 457 kts 255°
2026-04-26 15:16 35.00180 139.06664 27606 ft 456 kts 255°
2026-04-26 15:17 34.99549 139.02932 28247 ft 451 kts 255°
2026-04-26 15:17 34.99122 139.00408 28651 ft 449 kts 255°
2026-04-26 15:17 34.98634 138.95387 29379 ft 451 kts 262°
2026-04-26 15:17 34.98431 138.91583 29947 ft 448 kts 261°
2026-04-26 15:18 34.98234 138.87802 30522 ft 445 kts 261°
2026-04-26 15:18 34.98042 138.84055 31061 ft 441 kts 261°
2026-04-26 15:18 34.97848 138.80337 31625 ft 437 kts 261°
2026-04-26 15:18 34.97652 138.76665 32225 ft 432 kts 261°
2026-04-26 15:19 34.97457 138.73016 32768 ft 428 kts 260°
2026-04-26 15:19 34.97264 138.69406 33317 ft 425 kts 260°
2026-04-26 15:19 34.97072 138.65822 33854 ft 421 kts 260°
2026-04-26 15:19 34.96880 138.62279 34345 ft 417 kts 259°
2026-04-26 15:20 34.96689 138.58773 34839 ft 412 kts 259°
2026-04-26 15:20 34.96502 138.55347 35329 ft 408 kts 259°
2026-04-26 15:20 34.96314 138.51914 35808 ft 404 kts 259°
2026-04-26 15:20 34.96123 138.48495 35974 ft 407 kts 259°
2026-04-26 15:21 34.95742 138.41624 35970 ft 403 kts 259°
2026-04-26 15:21 34.95359 138.34833 35970 ft 400 kts 259°
2026-04-26 15:22 34.95039 138.29214 35980 ft 400 kts 259°
2026-04-26 15:22 34.94651 138.22419 35969 ft 402 kts 258°
2026-04-26 15:23 34.94193 138.14507 35981 ft 403 kts 258°
2026-04-26 15:23 34.93793 138.07672 35967 ft 404 kts 258°
2026-04-26 15:24 34.93455 138.01951 35964 ft 404 kts 258°
2026-04-26 15:24 34.93048 137.95112 35971 ft 405 kts 258°
2026-04-26 15:25 34.92637 137.88258 35958 ft 406 kts 258°
2026-04-26 15:25 34.92223 137.81445 35956 ft 406 kts 258°
2026-04-26 15:26 34.91802 137.74567 35949 ft 407 kts 258°
2026-04-26 15:26 34.91167 137.67751 35946 ft 400 kts 251°
2026-04-26 15:27 34.89503 137.61360 35936 ft 395 kts 245°
2026-04-26 15:27 34.87622 137.55050 35935 ft 396 kts 244°
2026-04-26 15:28 34.85726 137.48751 35923 ft 396 kts 244°
2026-04-26 15:28 34.83881 137.42409 35927 ft 398 kts 246°
2026-04-26 15:29 34.82079 137.36028 35916 ft 398 kts 245°
2026-04-26 15:30 34.78422 137.23314 35905 ft 400 kts 245°
2026-04-26 15:30 34.76580 137.16930 35902 ft 400 kts 245°
2026-04-26 15:31 34.73813 137.07346 35903 ft 401 kts 244°
2026-04-26 15:32 34.70989 136.99063 35920 ft 395 kts 235°
2026-04-26 15:32 34.67087 136.92949 35919 ft 391 kts 222°
2026-04-26 15:33 34.62903 136.88798 35913 ft 391 kts 217°
2026-04-26 15:33 34.58582 136.84780 35910 ft 391 kts 217°
2026-04-26 15:34 34.54253 136.80788 35908 ft 391 kts 217°
2026-04-26 15:34 34.49926 136.76790 35903 ft 391 kts 217°
2026-04-26 15:35 34.45598 136.72802 35906 ft 390 kts 217°
2026-04-26 15:35 34.41279 136.68825 35904 ft 390 kts 217°
2026-04-26 15:36 34.36950 136.64845 35897 ft 390 kts 217°
2026-04-26 15:36 34.32654 136.60901 35897 ft 389 kts 217°
2026-04-26 15:37 34.28323 136.56907 35898 ft 389 kts 217°
2026-04-26 15:37 34.24072 136.52883 35891 ft 387 kts 217°
2026-04-26 15:38 34.19835 136.48927 35889 ft 388 kts 217°
2026-04-26 15:38 34.15574 136.44933 35883 ft 387 kts 217°
2026-04-26 15:39 34.11312 136.40952 35883 ft 387 kts 217°
2026-04-26 15:39 34.07547 136.38059 35895 ft 387 kts 208°
2026-04-26 15:40 34.01973 136.34533 35892 ft 387 kts 208°
2026-04-26 15:40 33.97202 136.31526 35887 ft 387 kts 208°
2026-04-26 15:41 33.92475 136.28547 35883 ft 386 kts 208°
2026-04-26 15:41 33.87714 136.25552 35881 ft 387 kts 209°
2026-04-26 15:42 33.82951 136.22557 35866 ft 384 kts 208°
2026-04-26 15:42 33.78208 136.19579 35866 ft 384 kts 208°
2026-04-26 15:43 33.73472 136.16610 35863 ft 383 kts 208°
2026-04-26 15:44 33.66415 136.12192 35860 ft 383 kts 208°
2026-04-26 15:44 33.59313 136.07755 35857 ft 384 kts 208°
2026-04-26 15:45 33.52212 136.03326 35848 ft 383 kts 208°
2026-04-26 15:46 33.45111 135.98905 35847 ft 384 kts 208°
2026-04-26 15:46 33.41168 135.96455 35839 ft 384 kts 208°
2026-04-26 15:47 33.33295 135.91569 35835 ft 383 kts 208°
2026-04-26 15:48 33.28564 135.88636 35837 ft 383 kts 208°
2026-04-26 15:48 33.23827 135.85705 35838 ft 383 kts 208°
2026-04-26 15:49 33.19087 135.82775 35840 ft 383 kts 208°
2026-04-26 15:49 33.14352 135.79853 35833 ft 383 kts 208°
2026-04-26 15:50 33.09621 135.76935 35833 ft 382 kts 208°
2026-04-26 15:50 33.04909 135.74033 35946 ft 384 kts 207°
2026-04-26 15:50 33.02542 135.72577 36207 ft 382 kts 208°
2026-04-26 15:51 33.00180 135.71124 36446 ft 381 kts 208°
2026-04-26 15:51 32.97831 135.69681 36678 ft 380 kts 208°
2026-04-26 15:51 32.95482 135.68239 36907 ft 379 kts 208°
2026-04-26 15:51 32.93142 135.66802 37123 ft 378 kts 208°
2026-04-26 15:52 32.90807 135.65370 37332 ft 377 kts 208°
2026-04-26 15:52 32.88482 135.63945 37533 ft 376 kts 208°
2026-04-26 15:52 32.86158 135.62521 37728 ft 375 kts 208°
2026-04-26 15:52 32.84620 135.61579 37845 ft 375 kts 208°
2026-04-26 15:53 32.81502 135.59670 37836 ft 377 kts 208°
2026-04-26 15:53 32.76881 135.56845 37834 ft 374 kts 208°
2026-04-26 15:54 32.72254 135.54019 37838 ft 373 kts 208°
2026-04-26 15:54 32.67631 135.51199 37835 ft 373 kts 208°
2026-04-26 15:55 32.63024 135.48392 37839 ft 372 kts 208°
2026-04-26 15:55 32.58408 135.45583 37840 ft 372 kts 208°
2026-04-26 15:56 32.53794 135.42778 37845 ft 372 kts 208°
2026-04-26 15:56 32.49207 135.39993 37853 ft 373 kts 208°
2026-04-26 15:57 32.44582 135.37188 37856 ft 373 kts 208°
2026-04-26 15:57 32.39953 135.34385 37859 ft 374 kts 208°
2026-04-26 15:58 32.35323 135.31583 37862 ft 374 kts 208°
2026-04-26 15:58 32.30694 135.28785 37863 ft 373 kts 209°
2026-04-26 15:59 32.26069 135.25993 37866 ft 373 kts 209°
2026-04-26 15:59 32.21444 135.23205 37867 ft 373 kts 209°
2026-04-26 16:00 32.16820 135.20420 37870 ft 373 kts 209°
2026-04-26 16:00 32.12273 135.17541 37869 ft 373 kts 213°
2026-04-26 16:01 32.08206 135.13738 37867 ft 375 kts 223°
2026-04-26 16:01 32.04821 135.09019 37870 ft 379 kts 228°
2026-04-26 16:02 32.01588 135.04091 37867 ft 381 kts 229°
2026-04-26 16:02 31.98351 134.99126 37867 ft 383 kts 229°
2026-04-26 16:03 31.95086 134.94142 37863 ft 385 kts 229°
2026-04-26 16:03 31.91802 134.89126 37866 ft 388 kts 229°
2026-04-26 16:04 31.88496 134.84087 37865 ft 390 kts 229°
2026-04-26 16:04 31.85167 134.79018 37861 ft 392 kts 229°
2026-04-26 16:05 31.81827 134.73939 37852 ft 393 kts 229°
2026-04-26 16:05 31.78493 134.68877 37849 ft 396 kts 229°
2026-04-26 16:06 31.75108 134.63744 37852 ft 399 kts 230°
2026-04-26 16:06 31.71691 134.58570 37847 ft 402 kts 230°
2026-04-26 16:07 31.68256 134.53374 37847 ft 404 kts 230°
2026-04-26 16:07 31.64798 134.48151 37854 ft 405 kts 230°
2026-04-26 16:08 31.61336 134.42931 37847 ft 405 kts 230°
2026-04-26 16:08 31.57896 134.37748 37844 ft 405 kts 230°
2026-04-26 16:09 31.54428 134.32532 37849 ft 405 kts 230°
2026-04-26 16:09 31.50958 134.27320 37856 ft 406 kts 230°
2026-04-26 16:10 31.47476 134.22097 37852 ft 406 kts 230°
2026-04-26 16:10 31.44583 134.17762 37851 ft 406 kts 231°
2026-04-26 16:11 31.41105 134.12559 37847 ft 406 kts 231°
2026-04-26 16:11 31.37627 134.07360 37857 ft 406 kts 231°
2026-04-26 16:12 31.34154 134.02178 37857 ft 407 kts 231°
2026-04-26 16:12 31.28908 133.94361 37860 ft 408 kts 231°
2026-04-26 16:13 31.25404 133.89149 37867 ft 408 kts 231°
2026-04-26 16:13 31.21894 133.83936 37867 ft 408 kts 231°
2026-04-26 16:14 31.18379 133.78721 37864 ft 408 kts 231°
2026-04-26 16:15 31.13099 133.70903 37861 ft 409 kts 231°
2026-04-26 16:15 31.09574 133.65691 37869 ft 409 kts 231°
2026-04-26 16:16 31.04278 133.57874 37868 ft 409 kts 231°
2026-04-26 16:16 31.00749 133.52672 37873 ft 409 kts 231°
2026-04-26 16:17 30.97235 133.47496 37863 ft 409 kts 231°
2026-04-26 16:17 30.93698 133.42295 37870 ft 410 kts 231°
2026-04-26 16:18 30.88388 133.34499 37874 ft 409 kts 232°
2026-04-26 16:19 30.83081 133.26722 37878 ft 408 kts 232°
2026-04-26 16:20 30.77778 133.18967 37868 ft 408 kts 232°
2026-04-26 16:20 30.72485 133.11241 37875 ft 407 kts 232°
2026-04-26 16:21 30.68952 133.06092 37879 ft 407 kts 232°
2026-04-26 16:21 30.65426 133.00960 37883 ft 407 kts 232°
2026-04-26 16:22 30.61886 132.95816 37880 ft 406 kts 232°
2026-04-26 16:22 30.58383 132.90731 37879 ft 406 kts 232°
2026-04-26 16:23 30.54858 132.85621 37883 ft 405 kts 232°
2026-04-26 16:23 30.51340 132.80528 37880 ft 404 kts 232°
2026-04-26 16:24 30.47829 132.75451 37886 ft 403 kts 232°
2026-04-26 16:24 30.44317 132.70379 37881 ft 403 kts 232°
2026-04-26 16:25 30.40801 132.65310 37886 ft 402 kts 232°
2026-04-26 16:25 30.37315 132.60288 37880 ft 402 kts 232°
2026-04-26 16:26 30.33811 132.55247 37893 ft 401 kts 232°
2026-04-26 16:26 30.30311 132.50218 37891 ft 401 kts 232°
2026-04-26 16:27 30.26812 132.45198 37889 ft 400 kts 232°
2026-04-26 16:27 30.23317 132.40189 37887 ft 400 kts 232°
2026-04-26 16:28 30.19820 132.35184 37893 ft 400 kts 232°
2026-04-26 16:28 30.16325 132.30187 37896 ft 400 kts 232°
2026-04-26 16:29 30.12829 132.25196 37893 ft 399 kts 232°
2026-04-26 16:29 30.09357 132.20245 37895 ft 399 kts 232°
2026-04-26 16:30 30.05866 132.15273 37900 ft 398 kts 232°
2026-04-26 16:30 30.02376 132.10308 37897 ft 398 kts 232°
2026-04-26 16:31 29.98887 132.05352 37901 ft 397 kts 232°
2026-04-26 16:31 29.95397 132.00400 37911 ft 397 kts 232°
2026-04-26 16:32 29.92498 131.96291 37915 ft 397 kts 232°
2026-04-26 16:32 29.88423 131.90523 37901 ft 396 kts 232°
2026-04-26 16:33 29.84945 131.85606 37899 ft 395 kts 232°
2026-04-26 16:33 29.81471 131.80710 37893 ft 395 kts 231°
2026-04-26 16:34 29.77914 131.75899 37900 ft 395 kts 231°
2026-04-26 16:34 29.74358 131.71080 37908 ft 395 kts 231°
2026-04-26 16:35 29.70817 131.66296 37903 ft 394 kts 231°
2026-04-26 16:35 29.67259 131.61491 37907 ft 394 kts 231°
2026-04-26 16:36 29.63695 131.56685 37914 ft 394 kts 231°
2026-04-26 16:36 29.60132 131.51885 37916 ft 395 kts 231°
2026-04-26 16:37 29.56591 131.47121 37917 ft 394 kts 231°
2026-04-26 16:37 29.53027 131.42331 37911 ft 394 kts 231°
2026-04-26 16:38 29.49458 131.37541 37914 ft 394 kts 231°
2026-04-26 16:38 29.45893 131.32761 37913 ft 394 kts 231°
2026-04-26 16:39 29.42326 131.27985 37912 ft 393 kts 231°
2026-04-26 16:39 29.38767 131.23224 37918 ft 393 kts 231°
2026-04-26 16:40 29.35202 131.18462 37926 ft 393 kts 231°
2026-04-26 16:40 29.31643 131.13712 37929 ft 393 kts 231°
2026-04-26 16:41 29.28100 131.08990 37924 ft 393 kts 231°
2026-04-26 16:41 29.24539 131.04250 37925 ft 392 kts 231°
2026-04-26 16:42 29.20978 130.99515 37928 ft 392 kts 230°
2026-04-26 16:42 29.17416 130.94784 37926 ft 392 kts 230°
2026-04-26 16:43 29.13846 130.90053 38079 ft 396 kts 232°
2026-04-26 16:43 29.12024 130.87631 37934 ft 407 kts 232°
2026-04-26 16:43 29.10156 130.85152 37936 ft 414 kts 232°
2026-04-26 16:44 29.06352 130.80124 37945 ft 427 kts 232°
2026-04-26 16:44 29.02447 130.74962 37951 ft 429 kts 232°
2026-04-26 16:45 28.98533 130.69795 37951 ft 430 kts 232°
2026-04-26 16:45 28.94622 130.64638 37951 ft 429 kts 232°
2026-04-26 16:46 28.90705 130.59480 37953 ft 430 kts 232°
2026-04-26 16:46 28.86809 130.54357 37954 ft 430 kts 232°
2026-04-26 16:47 28.82885 130.49202 37948 ft 430 kts 232°
2026-04-26 16:47 28.78959 130.44051 37944 ft 430 kts 232°
2026-04-26 16:48 28.75028 130.38901 37944 ft 430 kts 232°
2026-04-26 16:48 28.71095 130.33755 37943 ft 431 kts 232°
2026-04-26 16:49 28.67150 130.28598 37945 ft 432 kts 232°
2026-04-26 16:49 28.63200 130.23442 37950 ft 432 kts 232°
2026-04-26 16:50 28.59272 130.18321 37952 ft 432 kts 232°
2026-04-26 16:50 28.55320 130.13175 37955 ft 432 kts 232°
2026-04-26 16:51 28.51354 130.08018 37957 ft 433 kts 233°
2026-04-26 16:51 28.47385 130.02862 37963 ft 433 kts 233°
2026-04-26 16:52 28.44759 129.99455 37956 ft 434 kts 233°
2026-04-26 16:52 28.39453 129.92578 37959 ft 435 kts 233°
2026-04-26 16:53 28.35462 129.87414 37957 ft 435 kts 233°
2026-04-26 16:53 28.31465 129.82248 37957 ft 435 kts 233°
2026-04-26 16:54 28.27461 129.77080 37963 ft 435 kts 233°
2026-04-26 16:54 28.23455 129.71914 37962 ft 436 kts 233°
2026-04-26 16:55 28.19443 129.66750 37964 ft 436 kts 233°
2026-04-26 16:55 28.15427 129.61584 37966 ft 437 kts 233°
2026-04-26 16:56 28.09420 129.53870 37990 ft 437 kts 233°
2026-04-26 16:57 28.05396 129.48710 37962 ft 438 kts 233°
2026-04-26 16:57 27.99340 129.40958 37966 ft 438 kts 233°
2026-04-26 16:58 27.96633 129.37498 37962 ft 439 kts 233°
2026-04-26 16:59 27.89900 129.28902 37974 ft 439 kts 233°
2026-04-26 17:00 27.81775 129.18552 37983 ft 441 kts 234°
2026-04-26 17:00 27.75654 129.10772 37980 ft 442 kts 234°
2026-04-26 17:01 27.71562 129.05583 37979 ft 442 kts 234°
2026-04-26 17:01 27.67466 129.00395 37980 ft 443 kts 234°
2026-04-26 17:02 27.63391 128.95239 37983 ft 444 kts 234°
2026-04-26 17:02 27.59275 128.90038 37987 ft 445 kts 234°
2026-04-26 17:03 27.55150 128.84833 37987 ft 445 kts 234°
2026-04-26 17:03 27.51024 128.79631 37983 ft 445 kts 235°
2026-04-26 17:04 27.46886 128.74421 37991 ft 447 kts 235°
2026-04-26 17:04 27.42902 128.69075 38013 ft 440 kts 243°
2026-04-26 17:05 27.39771 128.63196 38000 ft 438 kts 245°
2026-04-26 17:05 27.36669 128.57307 37990 ft 437 kts 246°
2026-04-26 17:06 27.33572 128.51421 37986 ft 437 kts 246°
2026-04-26 17:06 27.30490 128.45582 37985 ft 437 kts 246°
2026-04-26 17:07 27.27388 128.39704 37973 ft 437 kts 246°
2026-04-26 17:07 27.24278 128.33826 37974 ft 437 kts 246°
2026-04-26 17:08 27.21169 128.27954 37971 ft 437 kts 246°
2026-04-26 17:08 27.18061 128.22092 37971 ft 437 kts 247°
2026-04-26 17:09 27.15476 128.17224 37979 ft 437 kts 247°
2026-04-26 17:09 27.11832 128.10369 37983 ft 437 kts 247°
2026-04-26 17:10 27.08712 128.04509 37986 ft 436 kts 247°
2026-04-26 17:10 27.05599 127.98669 37997 ft 436 kts 247°
2026-04-26 17:11 27.02484 127.92833 37997 ft 436 kts 247°
2026-04-26 17:11 26.99370 127.87006 38004 ft 436 kts 247°
2026-04-26 17:12 26.94725 127.78330 38013 ft 435 kts 247°
2026-04-26 17:13 26.91258 127.72815 36597 ft 434 kts 234°
2026-04-26 17:13 26.88862 127.70555 34065 ft 467 kts 222°
2026-04-26 17:13 26.82563 127.67752 29415 ft 501 kts 194°
2026-04-26 17:14 26.79123 127.67515 27619 ft 494 kts 182°
2026-04-26 17:14 26.72578 127.69341 24257 ft 482 kts 158°
2026-04-26 17:14 26.69750 127.71301 22510 ft 474 kts 146°
2026-04-26 17:15 26.64964 127.76127 19047 ft 451 kts 137°
2026-04-26 17:15 26.62792 127.78598 17337 ft 439 kts 136°
2026-04-26 17:15 26.60707 127.81026 15689 ft 425 kts 136°
2026-04-26 17:16 26.58688 127.83356 14085 ft 410 kts 137°
2026-04-26 17:16 26.56610 127.85482 13179 ft 406 kts 142°
2026-04-26 17:16 26.54423 127.87400 12574 ft 396 kts 147°
2026-04-26 17:16 26.52122 127.89061 11857 ft 391 kts 152°
2026-04-26 17:17 26.49715 127.90430 11208 ft 384 kts 158°
2026-04-26 17:17 26.47305 127.91489 9877 ft 365 kts 163°
2026-04-26 17:17 26.44853 127.92141 8211 ft 357 kts 175°
2026-04-26 17:17 26.42459 127.92236 7276 ft 329 kts 184°
2026-04-26 17:18 26.40296 127.92125 7003 ft 300 kts 187°
2026-04-26 17:18 26.38317 127.91637 6987 ft 284 kts 207°
2026-04-26 17:18 26.36549 127.90685 6982 ft 282 kts 207°
2026-04-26 17:18 26.34762 127.89792 6982 ft 281 kts 206°
2026-04-26 17:19 26.31200 127.87982 6982 ft 281 kts 207°
2026-04-26 17:19 26.29424 127.87071 6983 ft 281 kts 207°
2026-04-26 17:19 26.27661 127.86171 6683 ft 278 kts 207°
2026-04-26 17:20 26.25895 127.85270 6162 ft 279 kts 207°
2026-04-26 17:20 26.24733 127.84677 5844 ft 277 kts 207°
2026-04-26 17:20 26.22391 127.83482 5149 ft 276 kts 206°
2026-04-26 17:20 26.20674 127.82606 4674 ft 274 kts 206°
2026-04-26 17:21 26.18944 127.81726 4173 ft 273 kts 206°
2026-04-26 17:21 26.17218 127.80845 3791 ft 272 kts 206°
2026-04-26 17:21 26.15500 127.79970 3347 ft 271 kts 206°
2026-04-26 17:21 26.13793 127.79097 2927 ft 269 kts 206°
2026-04-26 17:22 26.12130 127.78258 2774 ft 255 kts 206°
2026-04-26 17:22 26.10517 127.77435 2309 ft 255 kts 206°
2026-04-26 17:22 26.08911 127.76617 1992 ft 250 kts 207°
2026-04-26 17:22 26.07338 127.75815 1992 ft 249 kts 206°
2026-04-26 17:23 26.05931 127.74828 1966 ft 234 kts 231°
2026-04-26 17:23 26.05147 127.73310 1980 ft 228 kts 257°
2026-04-26 17:23 26.05002 127.71610 2017 ft 211 kts 270°
2026-04-26 17:23 26.04934 127.70013 2013 ft 203 kts 270°
2026-04-26 17:24 26.04881 127.68442 2004 ft 204 kts 270°
2026-04-26 17:24 26.05057 127.66962 1952 ft 183 kts 295°
2026-04-26 17:24 26.05813 127.65866 1978 ft 180 kts 321°
2026-04-26 17:24 26.06978 127.65432 1982 ft 177 kts 352°
2026-04-26 17:25 26.08193 127.65298 1995 ft 178 kts 354°
2026-04-26 17:25 26.09443 127.65200 1749 ft 177 kts 355°
2026-04-26 17:25 26.10605 127.65127 1515 ft 157 kts 355°
2026-04-26 17:25 26.11625 127.65073 1311 ft 139 kts 355°
2026-04-26 17:26 26.12573 127.65018 1139 ft 135 kts 355°
2026-04-26 17:26 26.13503 127.64963 958 ft 133 kts 355°
2026-04-26 17:26 26.14430 127.64904 796 ft 135 kts 354°
2026-04-26 17:26 26.15356 127.64854 585 ft 132 kts 353°
2026-04-26 17:27 26.16298 127.64755 409 ft 137 kts 356°
2026-04-26 17:27 26.17240 127.64712 238 ft 140 kts 356°
2026-04-26 17:27 26.18220 127.64663 64 ft 140 kts 356°
2026-04-26 17:27 26.19112 127.64618 28 ft 107 kts 357°
2026-04-26 17:28 26.19614 127.64594 24 ft 55 kts
2026-04-26 17:28 26.19887 127.64687 23 ft 27 kts 28°
2026-04-26 17:28 26.20013 127.64760 24 ft 20 kts 29°
2026-04-26 17:28 26.20103 127.64778 25 ft 13 kts 356°
2026-04-26 17:29 26.20139 127.64775 26 ft 0 kts 355°
2026-04-26 17:29 26.20141 127.64775 26 ft 1 kts 355°
2026-04-26 17:29 26.20155 127.64774 26 ft 3 kts 356°
2026-04-26 17:30 26.20181 127.64772 25 ft 5 kts 357°
2026-04-26 17:30 26.20224 127.64771 26 ft 7 kts 359°
2026-04-26 17:30 26.20277 127.64771 25 ft 8 kts 359°
2026-04-26 17:30 26.20335 127.64768 26 ft 9 kts 356°
2026-04-26 17:31 26.20397 127.64763 28 ft 10 kts 356°
2026-04-26 17:31 26.20467 127.64759 29 ft 11 kts 358°
2026-04-26 17:31 26.20544 127.64758 26 ft 12 kts
2026-04-26 17:31 26.20630 127.64759 26 ft 13 kts
2026-04-26 17:32 26.20723 127.64749 26 ft 14 kts 357°
2026-04-26 17:32 26.20819 127.64745 26 ft 14 kts 357°
2026-04-26 17:32 26.20890 127.64751 28 ft 4 kts 40°
2026-04-26 17:32 26.20896 127.64767 29 ft 2 kts 77°
2026-04-26 17:33 26.20895 127.64800 30 ft 5 kts 91°
2026-04-26 17:33 26.20895 127.64844 29 ft 6 kts 88°
2026-04-26 17:33 26.20892 127.64879 29 ft 4 kts 111°
2026-04-26 17:35 26.20885 127.64890 30 ft 3 kts 131°
2026-04-26 17:35 26.20868 127.64904 26 ft 3 kts 145°
2026-04-26 17:35 26.20849 127.64916 27 ft 3 kts 154°
2026-04-26 17:35 26.20842 127.64919 26 ft 0 kts 155°
2026-04-26 17:43 26.04911 127.69324 2002 ft 203 kts 270°
2026-04-26 17:43 26.15783 127.64812 503 ft 137 kts 354°
2026-04-26 17:43 26.16620 127.64751 358 ft 136 kts
2026-04-26 17:43 26.17136 127.64717 256 ft 129 kts 356°
2026-04-26 17:45 26.17498 127.64703 200 ft 133 kts 357°
2026-04-26 17:45 26.18030 127.64672 100 ft 141 kts 356°
2026-04-26 17:45 26.18962 127.64623 28 ft 118 kts 359°
2026-04-26 17:46 26.19539 127.64595 25 ft 55 kts 357°
2026-04-26 17:46 26.19849 127.64665 26 ft 35 kts 24°
2026-04-26 17:46 26.19990 127.64747 28 ft 20 kts 26°
2026-04-26 17:46 26.20086 127.64779 26 ft 12 kts 356°
2026-04-26 17:47 26.20139 127.64775 26 ft 0 kts 355°
2026-04-26 17:47 26.18371 127.64656 45 ft 139 kts 357°
2026-04-26 17:47 26.18185 127.64664 68 ft 140 kts 356°
2026-04-26 17:48 26.19087 127.64620 28 ft 109 kts 357°
2026-04-26 17:48 26.19600 127.64594 24 ft 55 kts
2026-04-26 17:48 26.20842 127.64919 26 ft 0 kts 155°